| time (UTC) | temp F | wind direction | speed knots | gust knots | rain 1hr in | rain 24hr in | rain mn in | humidity % | barometer mb |
| 20260505025012 | 58 | 247 | 0.0 | 7.8 | 0.00 | 0.00 | 0.00 | 58 | 1008.3 |
| 20260505024506 | 58 | 201 | 0.0 | 7.8 | 0.00 | 0.00 | 0.00 | 57 | 1008.2 |
| 20260505023957 | 59 | 217 | 0.0 | 3.5 | 0.00 | 0.00 | 0.00 | 57 | 1008.2 |
| 20260505023710 | 59 | 223 | 0.0 | 7.0 | 0.00 | 0.00 | 0.00 | 56 | 1008.2 |
| 20260505023205 | 59 | 196 | 0.0 | 7.0 | 0.00 | 0.00 | 0.00 | 56 | 1008.2 |
| 20260505022435 | 59 | 216 | 0.0 | 3.5 | 0.00 | 0.00 | 0.00 | 56 | 1008.3 |
| 20260505021934 | 59 | 275 | 0.0 | 3.5 | 0.00 | 0.00 | 0.00 | 55 | 1008.3 |
| 20260505021427 | 59 | 238 | 0.0 | 5.2 | 0.00 | 0.00 | 0.00 | 55 | 1008.4 |
| 20260505020912 | 59 | 211 | 0.0 | 5.2 | 0.00 | 0.00 | 0.00 | 54 | 1008.3 |
| 20260505020626 | 60 | 219 | 0.0 | 1.7 | 0.00 | 0.00 | 0.00 | 54 | 1008.3 |
| 20260505015900 | 60 | 225 | 0.0 | 3.5 | 0.00 | 0.00 | 0.00 | 53 | 1008.3 |
| 20260505015346 | 60 | 270 | 0.0 | 1.7 | 0.00 | 0.00 | 0.00 | 53 | 1008.2 |
| 20260505014840 | 60 | 197 | 0.0 | 9.6 | 0.00 | 0.00 | 0.00 | 52 | 1008.2 |
| 20260505014334 | 60 | 190 | 0.0 | 9.6 | 0.00 | 0.00 | 0.00 | 52 | 1008.2 |
| 20260505013824 | 60 | 195 | 0.0 | 6.1 | 0.00 | 0.00 | 0.00 | 52 | 1008.1 |
| 20260505013318 | 61 | 238 | 0.0 | 6.1 | 0.00 | 0.00 | 0.00 | 52 | 1008.1 |
| 20260505012812 | 61 | 223 | 0.0 | 6.1 | 0.00 | 0.00 | 0.00 | 51 | 1008.0 |
| 20260505012259 | 61 | 251 | 0.0 | 5.2 | 0.00 | 0.00 | 0.00 | 51 | 1007.9 |
| 20260505011753 | 61 | 233 | 0.0 | 3.5 | 0.00 | 0.00 | 0.00 | 50 | 1007.8 |
| 20260505011244 | 61 | 242 | 0.0 | 2.6 | 0.00 | 0.00 | 0.00 | 50 | 1007.8 |
| 20260505010733 | 62 | 237 | 0.0 | 3.5 | 0.00 | 0.00 | 0.00 | 49 | 1007.6 |
| 20260505010228 | 62 | 188 | 0.0 | 7.0 | 0.00 | 0.00 | 0.00 | 49 | 1007.6 |
| 20260505005722 | 62 | 228 | 0.0 | 7.0 | 0.00 | 0.00 | 0.00 | 49 | 1007.4 |
| 20260505005207 | 62 | 222 | 0.0 | 7.8 | 0.00 | 0.00 | 0.00 | 49 | 1007.4 |
| 20260505004703 | 62 | 217 | 0.0 | 7.8 | 0.00 | 0.00 | 0.00 | 48 | 1007.3 |
| 20260505004420 | 63 | 261 | 0.0 | 1.7 | 0.00 | 0.00 | 0.00 | 48 | 1007.2 |
| 20260505003646 | 63 | 240 | 0.0 | 1.7 | 0.00 | 0.00 | 0.00 | 48 | 1007.0 |
| 20260505003145 | 63 | 208 | 0.0 | 1.7 | 0.00 | 0.00 | 0.00 | 48 | 1007.0 |
| 20260505002641 | 63 | 235 | 0.0 | 3.5 | 0.00 | 0.00 | 0.00 | 47 | 1006.8 |
| 20260505002144 | 63 | 249 | 0.0 | 3.5 | 0.00 | 0.00 | 0.00 | 47 | 1006.7 |
| 20260505001641 | 64 | 216 | 0.0 | 3.5 | 0.00 | 0.00 | 0.00 | 47 | 1006.6 |
| 20260505001145 | 64 | 232 | 0.0 | 8.7 | 0.00 | 0.00 | 0.00 | 46 | 1006.5 |
| 20260505000641 | 64 | 232 | 0.0 | 8.7 | 0.00 | 0.00 | 0.00 | 46 | 1006.4 |
| 20260505000408 | 64 | 236 | 0.0 | 6.1 | 0.00 | 0.00 | 0.00 | 45 | 1006.2 |
| 20260504235642 | 65 | 210 | 0.0 | 6.1 | 0.00 | 0.00 | 0.00 | 45 | 1006.0 |
| 20260504235142 | 65 | 211 | 0.0 | 11.3 | 0.00 | 0.00 | 0.00 | 45 | 1006.0 |
| 20260504234906 | 65 | 178 | 0.0 | 11.3 | 0.00 | 0.00 | 0.00 | 44 | 1005.9 |
| 20260504234142 | 66 | 222 | 0.0 | 3.5 | 0.00 | 0.00 | 0.00 | 44 | 1005.7 |
| 20260504233639 | 66 | 234 | 0.0 | 4.3 | 0.00 | 0.00 | 0.00 | 43 | 1005.7 |
| 20260504233143 | 66 | 150 | 0.0 | 7.8 | 0.00 | 0.00 | 0.00 | 43 | 1005.6 |
| 20260504232636 | 67 | 242 | 0.0 | 7.8 | 0.00 | 0.00 | 0.00 | 41 | 1005.6 |
| 20260504232124 | 67 | 250 | 0.0 | 7.0 | 0.00 | 0.00 | 0.00 | 41 | 1005.4 |
| 20260504231616 | 67 | 206 | 0.9 | 10.4 | 0.00 | 0.00 | 0.00 | 41 | 1005.4 |
| 20260504231111 | 67 | 226 | 0.9 | 10.4 | 0.00 | 0.00 | 0.00 | 40 | 1005.3 |
| 20260504230600 | 68 | 246 | 0.9 | 19.1 | 0.00 | 0.00 | 0.00 | 39 | 1005.2 |
| 20260504230107 | 68 | 243 | 0.9 | 19.1 | 0.00 | 0.00 | 0.00 | 39 | 1005.1 |
| 20260504225805 | 69 | 229 | 0.9 | 11.3 | 0.00 | 0.00 | 0.00 | 38 | 1005.0 |
| 20260504225038 | 69 | 176 | 0.9 | 11.3 | 0.00 | 0.00 | 0.00 | 37 | 1004.9 |
| 20260504224529 | 69 | 230 | 0.0 | 7.0 | 0.00 | 0.00 | 0.00 | 37 | 1004.8 |
| 20260504224027 | 70 | 226 | 0.0 | 7.0 | 0.00 | 0.00 | 0.00 | 36 | 1004.7 |
| 20260504223509 | 70 | 202 | 0.0 | 7.8 | 0.00 | 0.00 | 0.00 | 35 | 1004.7 |
| 20260504223004 | 70 | 292 | 0.0 | 7.8 | 0.00 | 0.00 | 0.00 | 34 | 1004.6 |
| 20260504221944 | 70 | 254 | 0.0 | 4.3 | 0.00 | 0.00 | 0.00 | 33 | 1004.6 |
| 20260504221438 | 70 | 231 | 0.0 | 4.3 | 0.00 | 0.00 | 0.00 | 33 | 1004.5 |
| 20260504220422 | 70 | 250 | 0.0 | 1.7 | 0.00 | 0.00 | 0.00 | 33 | 1004.6 |
| 20260504215915 | 70 | 182 | 0.0 | 6.1 | 0.00 | 0.00 | 0.00 | 33 | 1004.5 |
| 20260504215632 | 71 | 188 | 0.0 | 6.1 | 0.00 | 0.00 | 0.00 | 32 | 1004.6 |
| 20260504214856 | 71 | 216 | 0.0 | 2.6 | 0.00 | 0.00 | 0.00 | 33 | 1004.6 |
| 20260504214350 | 71 | 242 | 0.0 | 6.1 | 0.00 | 0.00 | 0.00 | 32 | 1004.7 |
| 20260504214112 | 71 | 244 | 0.0 | 6.1 | 0.00 | 0.00 | 0.00 | 31 | 1004.5 |
| 20260504213352 | 71 | 276 | 0.0 | 3.5 | 0.00 | 0.00 | 0.00 | 32 | 1004.6 |
| 20260504212850 | 71 | 313 | 0.0 | 2.6 | 0.00 | 0.00 | 0.00 | 31 | 1004.5 |
| 20260504212350 | 71 | 197 | 0.0 | 6.1 | 0.00 | 0.00 | 0.00 | 32 | 1004.6 |
| 20260504212134 | 71 | 256 | 0.0 | 8.7 | 0.00 | 0.00 | 0.00 | 32 | 1004.7 |
| 20260504211351 | 71 | 248 | 0.0 | 8.7 | 0.00 | 0.00 | 0.00 | 31 | 1004.4 |
| 20260504210852 | 72 | 240 | 0.0 | 2.6 | 0.00 | 0.00 | 0.00 | 31 | 1004.6 |
| 20260504210352 | 72 | 328 | 0.0 | 6.1 | 0.00 | 0.00 | 0.00 | 32 | 1004.6 |
| 20260504205855 | 72 | 292 | 0.0 | 6.1 | 0.00 | 0.00 | 0.00 | 32 | 1004.6 |
| 20260504205351 | 71 | 266 | 0.0 | 6.1 | 0.00 | 0.00 | 0.00 | 31 | 1004.6 |
| 20260504204854 | 71 | 191 | 0.0 | 6.1 | 0.00 | 0.00 | 0.00 | 30 | 1004.6 |
| 20260504204353 | 71 | 312 | 0.0 | 7.0 | 0.00 | 0.00 | 0.00 | 32 | 1004.6 |
| 20260504203852 | 71 | 236 | 0.0 | 7.0 | 0.00 | 0.00 | 0.00 | 31 | 1004.6 |
| 20260504203351 | 70 | 295 | 0.0 | 4.3 | 0.00 | 0.00 | 0.00 | 31 | 1004.6 |
| 20260504202851 | 71 | 198 | 0.0 | 7.8 | 0.00 | 0.00 | 0.00 | 31 | 1004.6 |
| 20260504202351 | 71 | 219 | 0.0 | 7.8 | 0.00 | 0.00 | 0.00 | 30 | 1004.6 |
| 20260504202110 | 71 | 355 | 0.0 | 8.7 | 0.00 | 0.00 | 0.00 | 31 | 1004.5 |
| 20260504201350 | 71 | 243 | 0.0 | 8.7 | 0.00 | 0.00 | 0.00 | 30 | 1004.8 |
| 20260504200851 | 72 | 291 | 0.0 | 3.5 | 0.00 | 0.00 | 0.00 | 29 | 1004.6 |
| 20260504200616 | 72 | 261 | 0.0 | 4.3 | 0.00 | 0.00 | 0.00 | 30 | 1004.8 |
| 20260504195851 | 72 | 176 | 0.0 | 5.2 | 0.00 | 0.00 | 0.00 | 29 | 1004.8 |
| 20260504195352 | 72 | 244 | 0.0 | 11.3 | 0.00 | 0.00 | 0.00 | 29 | 1004.8 |
| 20260504195103 | 72 | 240 | 0.0 | 11.3 | 0.00 | 0.00 | 0.00 | 28 | 1004.8 |
| 20260504194333 | 72 | 206 | 0.0 | 7.8 | 0.00 | 0.00 | 0.00 | 28 | 1004.9 |
| 20260504193833 | 72 | 265 | 0.0 | 7.8 | 0.00 | 0.00 | 0.00 | 28 | 1004.7 |
| 20260504193331 | 72 | 269 | 0.9 | 13.0 | 0.00 | 0.00 | 0.00 | 28 | 1004.8 |
| 20260504192830 | 72 | 228 | 0.9 | 13.0 | 0.00 | 0.00 | 0.00 | 29 | 1004.9 |
| 20260504192330 | 72 | 305 | 0.0 | 7.0 | 0.00 | 0.00 | 0.00 | 28 | 1004.7 |
| 20260504191830 | 72 | 270 | 0.0 | 6.1 | 0.00 | 0.00 | 0.00 | 29 | 1004.9 |
| 20260504191328 | 73 | 249 | 0.0 | 13.9 | 0.00 | 0.00 | 0.00 | 28 | 1004.8 |
| 20260504190832 | 72 | 211 | 0.9 | 13.9 | 0.00 | 0.00 | 0.00 | 29 | 1004.9 |
| 20260504190331 | 72 | 269 | 0.0 | 7.8 | 0.00 | 0.00 | 0.00 | 30 | 1004.9 |
| 20260504185829 | 72 | 317 | 0.9 | 7.8 | 0.00 | 0.00 | 0.00 | 28 | 1005.0 |
| 20260504185328 | 72 | 235 | 0.9 | 8.7 | 0.00 | 0.00 | 0.00 | 29 | 1005.1 |
| 20260504184829 | 72 | 232 | 0.0 | 8.7 | 0.00 | 0.00 | 0.00 | 28 | 1005.0 |
| 20260504184327 | 72 | 234 | 0.0 | 4.3 | 0.00 | 0.00 | 0.00 | 28 | 1005.1 |
| 20260504184042 | 72 | 238 | 0.0 | 7.8 | 0.00 | 0.00 | 0.00 | 29 | 1005.1 |
| 20260504183325 | 72 | 323 | 0.9 | 12.2 | 0.00 | 0.00 | 0.00 | 29 | 1005.3 |
| 20260504183055 | 71 | 176 | 0.9 | 16.5 | 0.00 | 0.00 | 0.00 | 28 | 1005.3 |
| 20260504182325 | 71 | 242 | 0.9 | 16.5 | 0.00 | 0.00 | 0.00 | 29 | 1005.3 |
| 20260504181825 | 72 | 171 | 0.9 | 10.4 | 0.00 | 0.00 | 0.00 | 30 | 1005.4 |
| 20260504181324 | 72 | 183 | 0.0 | 7.8 | 0.00 | 0.00 | 0.00 | 29 | 1005.3 |
| 20260504180841 | 71 | 255 | 0.9 | 12.2 | 0.00 | 0.00 | 0.00 | 30 | 1005.2 |
| 20260504180326 | 71 | 240 | 0.9 | 12.2 | 0.00 | 0.00 | 0.00 | 31 | 1005.3 |
| 20260504175827 | 71 | 237 | 0.9 | 14.8 | 0.00 | 0.00 | 0.00 | 31 | 1005.5 |
| 20260504175324 | 71 | 251 | 0.9 | 14.8 | 0.00 | 0.00 | 0.00 | 32 | 1005.3 |
| 20260504174824 | 71 | 220 | 0.9 | 9.6 | 0.00 | 0.00 | 0.00 | 31 | 1005.3 |
| 20260504174324 | 71 | 146 | 0.9 | 9.6 | 0.00 | 0.00 | 0.00 | 32 | 1005.4 |
| 20260504173824 | 71 | 327 | 0.9 | 10.4 | 0.00 | 0.00 | 0.00 | 31 | 1005.7 |
| 20260504173610 | 71 | 236 | 0.9 | 10.4 | 0.00 | 0.00 | 0.00 | 31 | 1005.7 |
| 20260504172821 | 71 | 230 | 0.0 | 10.4 | 0.00 | 0.00 | 0.00 | 30 | 1005.6 |
| 20260504172321 | 70 | 330 | 0.0 | 10.4 | 0.00 | 0.00 | 0.00 | 32 | 1005.8 |
| 20260504171822 | 71 | 345 | 1.7 | 16.5 | 0.00 | 0.00 | 0.00 | 33 | 1005.8 |
| 20260504170820 | 70 | 345 | 0.9 | 13.0 | 0.00 | 0.00 | 0.00 | 30 | 1005.7 |
| 20260504170329 | 70 | 222 | 0.9 | 13.0 | 0.00 | 0.00 | 0.00 | 30 | 1005.8 |
| 20260504160309 | 68 | 198 | 0.9 | 13.9 | 0.00 | 0.00 | 0.00 | 34 | 1006.4 |
| 20260504151149 | 66 | 294 | 0.9 | 12.2 | 0.00 | 0.00 | 0.00 | 36 | 1006.9 |
| 20260504150643 | 66 | 257 | 0.0 | 8.7 | 0.00 | 0.00 | 0.00 | 35 | 1007.0 |
| 20260504150144 | 66 | 309 | 0.0 | 8.7 | 0.00 | 0.00 | 0.00 | 34 | 1007.0 |
| 20260504141137 | 63 | 214 | 0.0 | 0.9 | 0.00 | 0.00 | 0.00 | 41 | 1007.4 |
| 20260504140638 | 62 | 329 | 0.0 | 3.5 | 0.00 | 0.00 | 0.00 | 42 | 1007.4 |
| 20260504140131 | 62 | 307 | 0.0 | 8.7 | 0.00 | 0.00 | 0.00 | 41 | 1007.5 |
| 20260504130505 | 57 | 261 | 0.0 | 5.2 | 0.00 | 0.00 | 0.00 | 47 | 1008.3 |
| 20260504110658 | 48 | 237 | 0.0 | 9.6 | 0.00 | 0.00 | 0.00 | 58 | 1008.4 |
| 20260504110153 | 48 | 228 | 0.0 | 9.6 | 0.00 | 0.00 | 0.00 | 58 | 1008.4 |
| 20260504081950 | 46 | 226 | 0.0 | 0.0 | 0.00 | 0.00 | 0.00 | 60 | 1008.3 |
| 20260504081224 | 46 | 226 | 0.0 | 0.0 | 0.00 | 0.00 | 0.00 | 59 | 1008.3 |
| 20260504080719 | 46 | 226 | 0.0 | 0.0 | 0.00 | 0.00 | 0.00 | 59 | 1008.3 |
| 20260504080208 | 46 | 226 | 0.0 | 0.0 | 0.00 | 0.00 | 0.00 | 59 | 1008.2 |
| 20260504070131 | 45 | 214 | 0.0 | 0.0 | 0.00 | 0.00 | 0.00 | 60 | 1008.2 |
| 20260504060108 | 43 | 230 | 0.0 | 0.0 | 0.00 | 0.00 | 0.00 | 61 | 1008.2 |
| 20260504045555 | 42 | 224 | 0.0 | 0.0 | 0.00 | 0.00 | 0.00 | 60 | 1008.3 |
| 20260504045054 | 42 | 224 | 0.0 | 0.0 | 0.00 | 0.00 | 0.00 | 60 | 1008.3 |
| 20260504044553 | 42 | 224 | 0.0 | 0.0 | 0.00 | 0.00 | 0.00 | 60 | 1008.3 |
| 20260504044057 | 42 | 224 | 0.0 | 0.0 | 0.00 | 0.00 | 0.00 | 61 | 1008.3 |
| 20260504043557 | 42 | 224 | 0.0 | 0.0 | 0.00 | 0.00 | 0.00 | 61 | 1008.3 |
| 20260504043056 | 42 | 224 | 0.0 | 0.0 | 0.00 | 0.00 | 0.00 | 61 | 1008.3 |
| 20260504042556 | 42 | 225 | 0.0 | 0.0 | 0.00 | 0.00 | 0.00 | 61 | 1008.2 |
| 20260504042100 | 42 | 223 | 0.0 | 0.0 | 0.00 | 0.00 | 0.00 | 61 | 1008.2 |
| 20260504041556 | 42 | 229 | 0.0 | 0.0 | 0.00 | 0.00 | 0.00 | 61 | 1008.2 |
| 20260504041321 | 42 | 217 | 0.0 | 0.0 | 0.00 | 0.00 | 0.00 | 61 | 1008.2 |
| 20260504040556 | 43 | 217 | 0.0 | 0.0 | 0.00 | 0.00 | 0.00 | 61 | 1008.1 |
| 20260504040107 | 43 | 212 | 0.0 | 0.0 | 0.00 | 0.00 | 0.00 | 61 | 1008.1 |
| 20260504035549 | 43 | 226 | 0.0 | 0.0 | 0.00 | 0.00 | 0.00 | 61 | 1008.0 |
| 20260504034546 | 43 | 225 | 0.0 | 0.0 | 0.00 | 0.00 | 0.00 | 59 | 1007.9 |
| 20260504034046 | 43 | 224 | 0.0 | 0.0 | 0.00 | 0.00 | 0.00 | 59 | 1007.9 |
| 20260504033543 | 44 | 224 | 0.0 | 0.0 | 0.00 | 0.00 | 0.00 | 58 | 1007.9 |
| 20260504033042 | 44 | 224 | 0.0 | 0.0 | 0.00 | 0.00 | 0.00 | 58 | 1007.8 |
| 20260504032540 | 44 | 224 | 0.0 | 0.0 | 0.00 | 0.00 | 0.00 | 58 | 1007.9 |
| 20260504032307 | 44 | 224 | 0.0 | 0.0 | 0.00 | 0.00 | 0.00 | 57 | 1007.9 |
| 20260504031538 | 44 | 224 | 0.0 | 0.0 | 0.00 | 0.00 | 0.00 | 57 | 1007.9 |
| 20260504031038 | 44 | 224 | 0.0 | 0.0 | 0.00 | 0.00 | 0.00 | 57 | 1007.9 |
| 20260504030801 | 44 | 224 | 0.0 | 0.0 | 0.00 | 0.00 | 0.00 | 57 | 1007.9 |
| 20260504030030 | 44 | 224 | 0.0 | 0.0 | 0.00 | 0.00 | 0.00 | 57 | 1007.9 |
| 20260504025523 | 44 | 224 | 0.0 | 0.0 | 0.00 | 0.00 | 0.00 | 56 | 1007.8 |